Seward, AK

9:16 AM AKDT on June 29, 2017 (GMT -0800)
Seward

Weather History for PAWD - November, 2012

Change the Weather History Date:

Sunday, November 4, 2012

  Actual Average Record
Temperature  
Mean Temperature 34 °F -  
Max Temperature 37 °F 39 °F 50 °F (1980)
Min Temperature 30 °F 29 °F 9 °F (1985)
Degree Days  
Heating Degree Days 32    
Moisture  
Dew Point 23 °F    
Average Humidity 67    
Maximum Humidity 78    
Minimum Humidity 52    
Precipitation  
Precipitation 0.00 in - - ()
Sea Level Pressure  
Sea Level Pressure 29.27 in    
Wind  
Wind Speed 16 mph (North)    
Max Wind Speed 28 mph    
Max Gust Speed 43 mph    
Visibility 10 miles    
Events      
Averages and records for this station are not official NWS values.
T = Trace of Precipitation, MM = Missing Value Source: NWS Daily Summary

Daily Weather History Graph

Daily Weather History Graph

Search for Another Location

Airport or City:

Trip Planner

Search our weather history database for the weather conditions in past years. The results will help you decide how hot, cold, wet, or windy it might be!

Date:

Astronomy

Nov. 04, 2012 Rise Set
Actual Time 8:30 AM AKST 4:51 PM AKST
Civil Twilight 7:43 AM AKST 5:37 PM AKST
Nautical Twilight 6:53 AM AKST 6:27 PM AKST
Astronomical Twilight 6:04 AM AKST 7:16 PM AKST
Moon 9:26 PM AKST (11/4) 1:36 PM AKST (11/4)
Length of Visible Light 9h 53m
Length of Day
8h 21m
Waning Gibbous, 70% of the Moon is Illuminated
Nov 4
Waning Gibbous
Nov 6
Last Quarter
Nov 13
New
Nov 20
First Quarter
Nov 28
Full

Hourly Weather History & Observations

Time (AKST) Temp. Windchill Dew Point Humidity Pressure Visibility Wind Dir Wind Speed Gust Speed Precip Events Conditions
12:53 AM 37.0 °F 28.9 °F 28.0 °F 70% 29.31 in 10.0 mi North 12.7 mph 18.4 mph N/A   Overcast
1:53 AM 36.0 °F 28.5 °F 28.0 °F 73% 29.32 in 10.0 mi North 10.4 mph - N/A   Clear
1:53 AM 35.1 °F 29.3 °F 28.0 °F 76% 29.32 in 10.0 mi North 6.9 mph - N/A   Mostly Cloudy
3:53 AM 36.0 °F 27.5 °F 28.0 °F 73% 29.30 in 10.0 mi North 12.7 mph 21.9 mph N/A   Clear
4:53 AM 36.0 °F 28.0 °F 28.9 °F 76% 29.29 in 10.0 mi North 11.5 mph - N/A   Clear
5:53 AM 35.1 °F 26.4 °F 28.9 °F 78% 29.30 in 10.0 mi North 12.7 mph 19.6 mph N/A   Clear
6:53 AM 34.0 °F 23.4 °F 27.0 °F 75% 29.28 in 10.0 mi North 17.3 mph 25.3 mph N/A   Clear
7:53 AM 33.1 °F 23.0 °F 26.1 °F 75% 29.28 in 10.0 mi North 15.0 mph 25.3 mph N/A   Clear
8:53 AM 33.1 °F 21.9 °F 26.1 °F 75% 29.27 in 10.0 mi North 18.4 mph 25.3 mph N/A   Clear
9:53 AM 32.0 °F 19.8 °F 24.1 °F 73% 29.27 in 10.0 mi NNE 20.7 mph 31.1 mph N/A   Clear
10:53 AM 34.0 °F 22.1 °F 25.0 °F 70% 29.26 in 10.0 mi North 21.9 mph 34.5 mph N/A   Clear
11:53 AM 35.1 °F 24.1 °F 25.0 °F 67% 29.26 in 10.0 mi NNE 19.6 mph 28.8 mph N/A   Clear
12:53 PM 36.0 °F 26.7 °F 25.0 °F 64% 29.25 in 10.0 mi North 15.0 mph 28.8 mph N/A   Clear
1:53 PM 35.1 °F 23.8 °F 24.1 °F 64% 29.24 in 10.0 mi NNE 20.7 mph 29.9 mph N/A   Clear
2:53 PM 35.1 °F 23.3 °F 23.0 °F 61% 29.23 in 10.0 mi North 23.0 mph 31.1 mph N/A   Clear
3:53 PM 32.0 °F 18.9 °F 21.0 °F 64% 29.23 in 10.0 mi North 24.2 mph 32.2 mph N/A   Clear
4:53 PM 32.0 °F 20.5 °F 21.0 °F 64% 29.24 in 10.0 mi North 18.4 mph 29.9 mph N/A   Clear
5:53 PM 30.0 °F 16.6 °F 19.0 °F 64% 29.26 in 10.0 mi North 23.0 mph 35.7 mph N/A   Clear
6:53 PM 30.0 °F 15.4 °F 18.0 °F 61% 29.26 in 10.0 mi North 27.6 mph 39.1 mph N/A   Clear
7:53 PM 30.9 °F 16.7 °F 18.0 °F 59% 29.26 in 10.0 mi North 27.6 mph 42.6 mph N/A   Clear
8:53 PM 30.9 °F 17.5 °F 17.1 °F 57% 29.27 in 10.0 mi North 24.2 mph 38.0 mph N/A   Clear
9:53 PM 30.9 °F 16.9 °F 16.0 °F 54% 29.29 in 10.0 mi North 26.5 mph 41.4 mph N/A   Clear
10:53 PM 30.9 °F 17.8 °F 15.1 °F 52% 29.32 in 10.0 mi North 23.0 mph 36.8 mph N/A   Clear